Time,TemperatureF,DewpointF,PressureIn,WindDirection,WindDirectionDegrees,WindSpeedMPH,WindSpeedGustMPH,Humidity,HourlyPrecipIn,Conditions,Clouds,dailyrainin,SoftwareType,DateUTC
2015-01-30 00:09:00,28.7,25.0,29.82,SSE,160,0.0,1.0,87,0.00,,,0.00,weatherlink.com 1.10,2015-01-30 05:09:00,
2015-01-30 00:24:00,28.5,25.0,29.82,South,182,0.0,0.0,88,0.00,,,0.00,weatherlink.com 1.10,2015-01-30 05:24:00,
2015-01-30 00:38:00,28.3,26.0,29.81,SE,141,0.0,0.0,90,0.00,,,0.00,weatherlink.com 1.10,2015-01-30 05:38:00,
2015-01-30 00:53:00,28.2,26.0,29.82,South,179,0.0,1.0,91,0.00,,,0.00,weatherlink.com 1.10,2015-01-30 05:53:00,
2015-01-30 01:07:00,28.3,26.0,29.81,WNW,286,0.0,1.0,91,0.00,,,0.00,weatherlink.com 1.10,2015-01-30 06:07:00,
2015-01-30 01:21:00,28.4,26.0,29.82,West,266,0.0,3.0,91,0.00,,,0.00,weatherlink.com 1.10,2015-01-30 06:21:00,
2015-01-30 01:36:00,28.4,26.0,29.82,SW,219,0.0,1.0,92,0.00,,,0.00,weatherlink.com 1.10,2015-01-30 06:36:00,
2015-01-30 01:50:00,28.2,26.0,29.82,West,275,0.0,1.0,92,0.00,,,0.00,weatherlink.com 1.10,2015-01-30 06:50:00,
2015-01-30 02:05:00,28.2,26.0,29.82,SSE,165,0.0,2.0,93,0.00,,,0.00,weatherlink.com 1.10,2015-01-30 07:05:00,
2015-01-30 02:19:00,28.3,27.0,29.83,West,265,0.0,1.0,93,0.00,,,0.00,weatherlink.com 1.10,2015-01-30 07:19:00,
2015-01-30 02:34:00,28.6,27.0,29.83,West,264,0.0,3.0,93,0.00,,,0.00,weatherlink.com 1.10,2015-01-30 07:34:00,
2015-01-30 02:48:00,28.8,27.0,29.83,West,264,2.0,4.0,93,0.00,,,0.00,weatherlink.com 1.10,2015-01-30 07:48:00,
2015-01-30 03:03:00,29.7,27.0,29.83,WSW,253,1.0,4.0,91,0.00,,,0.00,weatherlink.com 1.10,2015-01-30 08:03:00,
2015-01-30 03:17:00,30.1,27.0,29.84,West,271,1.0,4.0,89,0.00,,,0.00,weatherlink.com 1.10,2015-01-30 08:17:00,
2015-01-30 03:32:00,30.2,28.0,29.84,WSW,243,6.0,6.0,90,0.00,,,0.00,weatherlink.com 1.10,2015-01-30 08:32:00,
2015-01-30 03:46:00,30.2,28.0,29.84,West,279,1.0,4.0,90,0.00,,,0.00,weatherlink.com 1.10,2015-01-30 08:46:00,
2015-01-30 04:00:00,30.2,28.0,29.85,West,259,1.0,4.0,91,0.00,,,0.00,weatherlink.com 1.10,2015-01-30 09:00:00,
2015-01-30 04:15:00,30.2,28.0,29.85,West,281,1.0,4.0,91,0.00,,,0.00,weatherlink.com 1.10,2015-01-30 09:15:00,
2015-01-30 04:30:00,30.0,28.0,29.85,West,271,2.0,3.0,92,0.00,,,0.00,weatherlink.com 1.10,2015-01-30 09:30:00,
2015-01-30 04:44:00,30.0,28.0,29.86,WSW,255,1.0,3.0,92,0.00,,,0.00,weatherlink.com 1.10,2015-01-30 09:44:00,
2015-01-30 04:59:00,29.9,28.0,29.86,West,281,1.0,3.0,92,0.00,,,0.00,weatherlink.com 1.10,2015-01-30 09:59:00,
2015-01-30 05:13:00,29.8,28.0,29.85,WNW,288,2.0,4.0,92,0.00,,,0.00,weatherlink.com 1.10,2015-01-30 10:13:00,
2015-01-30 05:28:00,29.7,28.0,29.86,WNW,293,1.0,4.0,93,0.00,,,0.00,weatherlink.com 1.10,2015-01-30 10:28:00,
2015-01-30 05:42:00,29.6,28.0,29.86,WNW,285,1.0,5.0,93,0.00,,,0.00,weatherlink.com 1.10,2015-01-30 10:42:00,
2015-01-30 05:56:00,29.2,27.0,29.86,WNW,288,2.0,5.0,92,0.00,,,0.00,weatherlink.com 1.10,2015-01-30 10:56:00,
2015-01-30 06:11:00,29.0,27.0,29.86,West,269,1.0,5.0,91,0.00,,,0.00,weatherlink.com 1.10,2015-01-30 11:11:00,
2015-01-30 06:26:00,28.7,26.0,29.87,NW,322,4.0,5.0,91,0.00,,,0.00,weatherlink.com 1.10,2015-01-30 11:26:00,
2015-01-30 06:40:00,28.6,26.0,29.89,WNW,297,1.0,6.0,91,0.00,,,0.00,weatherlink.com 1.10,2015-01-30 11:40:00,
2015-01-30 06:54:00,28.3,26.0,29.89,NW,314,2.0,4.0,90,0.00,,,0.00,weatherlink.com 1.10,2015-01-30 11:54:00,
2015-01-30 07:09:00,28.1,25.0,29.90,WNW,296,0.0,5.0,89,0.00,,,0.00,weatherlink.com 1.10,2015-01-30 12:09:00,
2015-01-30 07:24:00,27.9,25.0,29.91,NW,317,1.0,4.0,89,0.00,,,0.00,weatherlink.com 1.10,2015-01-30 12:24:00,
2015-01-30 07:38:00,27.8,25.0,29.91,WNW,290,2.0,4.0,89,0.00,,,0.00,weatherlink.com 1.10,2015-01-30 12:38:00,
2015-01-30 07:52:00,27.7,25.0,29.92,WSW,257,1.0,5.0,89,0.00,,,0.00,weatherlink.com 1.10,2015-01-30 12:52:00,
2015-01-30 08:07:00,27.4,25.0,29.93,NW,305,2.0,4.0,89,0.00,,,0.00,weatherlink.com 1.10,2015-01-30 13:07:00,
2015-01-30 08:21:00,27.0,24.0,29.93,WNW,290,2.0,6.0,90,0.00,,,0.00,weatherlink.com 1.10,2015-01-30 13:21:00,